Location: ČR
(50.0000°N, 15.0000°E)
Time: 07:09:14
(UTC+02:00)

A-11 Canister half - Pass Details

Date: 20 March 2026
Orbit: 1514 x 1685 km, 47.2° (Epoch: 18 April)

Event Time Altitude Azimuth Distance (km) Brightness Sun altitude
Rises 14:04:53 0° 246° (WSW) 4,827 12.4 34.1°
Reaches altitude 10° 14:07:58 10° 244° (WSW) 3,863 12.2 33.8°
Maximum altitude 14:17:48 69° 164° (SSE) 1,762 10.1 32.8°
Drops below altitude 10° 14:27:52 10° 84° (E) 3,951 10.8 31.7°
Sets 14:31:04 0° 82° (E) 4,942 11.3 31.4°
